METAR Formatted Surface Weather Observation
Issued by NWS

Home | Current Version | Previous Version | Text Only | Print | Product List | Glossary On
Versions: 1 2 3 4 5 6 7 8 9 10 11 12 13 14 15 16 17 18 19 20 21 22 23 24 25 26 27 28 29 30 31 32 33 34 35 36 37 38 39 40 41 42 43 44 45 46 47 48 49 50
236
SAUS44 KSHV 051058
MTRAQV
METAR KAQV 051056Z AUTO 06006KT 9SM -RA OVC006 08/07 A2989 RMK AO2
SLP124 P0016 T00780072



USA.gov is the U.S. government's official web portal to all federal, state and local government web resources and services.